User: anonymous   Login
Location: Caltech
(34.1382°N, 118.1253°W)
Time: 16:45:33
(UTC-07:00)
Language:

ASTRO E2 - Orbit

View from above orbital plane
View from above orbital plane
View from above satellite
View from above satellite

Ground track
Ground track

The orbit data is extracted from the following two-line orbital elements,

1 28773U 05025A   17289.28112678 +.00001512 +00000-0 +72116-4 0  9991
2 28773 031.3824 231.0118 0004533 125.4196 234.6875 15.16108793675766
Epoch (UTC): 16 October 2017 06:44:49
Eccentricity: 0.0004533
inclination: 31.3824°
perigee height: 514 km
apogee height: 521 km
right ascension of ascending node: 231.0118°
argument of perigee: 125.4196°
revolutions per day: 15.16108793
mean anomaly at epoch: 234.6875°
orbit number at epoch: 67576

The dashed part of the orbit path shows where the satellite is in the earth's shadow,  

DLR